GFSCGP_con_lsi_135.txt.gz
Lid_Strength_Index
12 15 15 14 14 14 15 16 16 15 13 14 14 16 15 14 14 15 15 15 15 14 12 12 12 12 12 12 12 12 12 11 11 11 11 11 11 10 8 7 6 5 4 1
14 16 12 11 12 13 14 15 15 14 12 13 14 16 15 13 14 15 15 15 14 14 13 12 12 12 13 12 12 12 11 11 11 11 11 11 11 10 8 7 6 6 4 0
15 13 10 12 13 13 13 15 15 14 13 12 14 16 15 14 13 13 13 14 14 14 14 13 13 13 13 13 13 12 12 12 11 11 10 10 10 10 10 8 6 4 2 2
14 11 12 12 13 12 15 11 12 13 14 18 14 20 15 15 15 14 14 14 14 14 14 14 14 14 14 13 12 12 12 12 11 10 11 11 11 12 10 9 7 5 3 3
14 13 13 13 12 10 13 10 12 13 15 16 16 19 18 14 15 14 14 14 15 14 14 14 14 14 13 13 12 12 12 12 11 11 11 11 11 10 9 9 8 7 5 4
12 10 11 11 10 10 10 11 12 13 15 20 16 16 18 17 15 14 14 14 14 14 14 14 14 14 14 12 12 13 13 12 12 12 11 12 11 11 10 8 8 7 6 4
12 12 10 9 12 11 11 14 18 19 20 19 14 17 18 15 14 14 15 15 14 14 14 15 15 15 13 13 13 13 13 13 13 12 12 12 11 10 10 8 7 6 5 4
16 17 10 9 10 12 12 13 17 21 21 19 14 17 17 13 12 13 13 12 13 15 15 15 15 15 14 13 13 13 13 13 13 13 13 12 11 11 10 9 7 5 4 3
15 15 9 9 9 10 12 14 11 14 15 19 17 15 14 13 13 13 14 13 15 16 16 16 16 15 14 14 14 14 13 13 13 12 12 12 12 11 10 9 8 6 3 2
11 16 10 8 8 9 9 9 15 15 21 21 18 18 18 15 15 14 17 14 17 16 16 16 16 15 14 14 13 13 13 13 13 13 13 12 12 11 10 9 10 8 6 4
10 13 13 10 11 12 12 12 12 13 15 20 22 18 13 15 17 17 16 14 19 18 18 17 16 16 15 14 14 14 14 14 13 13 13 13 13 12 11 9 11 10 8 8
9 12 15 13 8 9 10 12 12 17 17 16 19 18 13 14 15 14 14 17 19 19 19 19 18 17 15 14 14 15 14 14 14 14 14 13 14 13 13 11 12 11 10 9
9 13 17 15 12 10 12 11 12 13 13 17 19 18 13 14 14 13 16 18 20 20 18 19 18 17 16 15 14 15 14 15 14 14 14 14 14 14 14 14 12 12 12 12
7 12 14 17 15 12 14 12 11 13 17 17 16 15 14 14 15 14 15 17 19 20 19 20 19 18 16 15 14 14 15 14 15 15 15 15 15 14 14 14 14 14 14 13
9 15 13 12 11 11 12 13 12 13 13 16 16 15 14 14 14 14 15 15 15 16 16 17 18 17 17 15 15 14 14 14 15 16 16 16 15 15 14 14 16 16 16 15
10 16 15 16 11 12 14 14 13 13 13 13 13 14 13 12 13 14 14 14 15 15 15 15 15 15 16 15 15 14 14 15 15 16 17 17 17 16 17 16 17 18 18 18
11 13 15 16 12 13 16 14 14 13 11 12 14 12 13 14 14 14 15 14 15 15 15 16 17 16 16 15 15 15 15 14 15 16 16 17 17 18 18 18 18 19 19 19
12 12 13 15 14 20 15 10 11 11 10 11 12 14 13 13 14 14 14 14 14 14 15 15 17 17 16 16 15 15 14 14 15 15 16 16 16 17 18 18 19 19 20 20
9 12 14 17 16 15 14 12 12 13 12 11 13 13 14 14 15 16 13 13 14 14 15 16 16 16 17 16 16 16 15 15 15 16 15 15 15 16 16 17 18 18 18 19
9 9 13 15 18 20 15 11 9 10 15 11 12 14 15 15 17 17 13 13 13 14 15 16 17 17 18 17 16 16 16 16 15 14 14 14 15 16 16 16 17 17 17 18
13 13 15 15 16 14 11 10 9 16 15 11 12 13 14 15 15 14 13 13 13 14 15 15 17 18 18 17 16 17 17 16 15 14 14 14 15 15 16 17 16 17 18 18
13 15 15 14 16 18 9 11 13 12 13 12 12 12 13 14 13 13 13 13 13 14 15 16 17 18 18 18 17 18 18 15 14 14 15 15 15 15 15 17 17 17 18 19
14 12 13 12 14 11 9 11 10 11 12 13 13 12 12 13 13 14 14 13 13 14 15 16 17 18 18 18 17 18 17 15 15 15 15 15 15 15 15 16 17 18 18 18
10 8 12 12 12 11 10 10 10 11 12 12 11 11 12 13 13 14 14 14 14 15 16 16 17 18 19 18 17 16 15 15 15 15 15 15 16 16 16 15 15 16 16 18
10 9 11 12 12 11 10 9 11 11 11 11 11 11 11 12 13 13 13 13 14 15 15 16 18 18 19 18 18 17 16 15 15 15 15 16 16 16 17 17 17 16 16 15
10 11 13 14 12 13 12 10 10 11 11 11 11 12 11 11 12 13 13 14 15 15 16 17 17 18 19 18 18 17 16 15 15 16 16 16 17 17 18 18 18 15 15 14

GFSCGP_con_lsi_138.txt.gz
Lid_Strength_Index
13 15 16 14 14 14 15 16 17 15 13 15 15 16 15 15 15 15 15 16 15 15 14 13 13 13 13 13 13 13 13 12 12 12 12 12 12 11 10 9 8 8 7 6
15 16 13 12 12 13 14 16 16 14 13 14 15 16 15 14 14 15 15 16 16 15 15 14 14 14 14 14 14 13 12 12 11 11 11 11 11 11 10 9 9 8 7 5
16 14 12 13 13 14 15 15 15 15 14 13 15 17 16 14 14 14 14 15 15 15 15 14 14 14 14 14 13 12 11 11 11 11 11 11 11 10 10 10 9 8 8 6
15 12 12 13 14 13 16 12 13 14 16 19 15 20 16 15 15 15 15 16 16 15 15 14 14 14 14 13 12 11 11 12 11 11 12 12 12 12 11 10 9 8 8 7
14 13 14 14 13 12 13 11 12 13 15 17 16 19 19 15 16 15 16 15 15 15 15 15 15 14 13 12 12 12 12 12 12 12 12 12 12 11 11 10 10 8 7 7
13 11 12 12 10 11 11 12 13 14 15 20 15 16 19 16 15 15 15 15 14 15 15 14 14 14 13 12 12 12 12 12 12 12 12 12 12 12 11 11 10 9 7 6
14 13 12 10 12 11 12 14 18 19 19 19 14 17 16 15 15 15 16 15 15 15 15 15 15 15 14 14 13 12 13 13 13 12 12 12 12 12 12 11 11 10 8 7
17 17 12 10 11 12 13 13 17 21 21 19 14 17 16 13 13 13 13 14 14 15 15 15 16 15 15 14 14 13 13 13 13 12 12 12 12 12 12 11 11 10 8 7
16 15 10 9 9 10 12 14 11 15 15 19 17 15 14 14 14 13 14 15 16 15 16 16 16 16 15 15 15 14 13 14 13 13 12 12 12 13 13 12 12 11 9 8
12 17 11 9 8 9 10 10 16 16 21 22 18 18 17 16 15 16 19 17 17 16 16 17 17 16 15 15 15 14 14 14 14 13 13 13 13 13 13 13 12 11 10 8
11 14 14 10 11 12 11 13 13 13 15 20 22 21 14 16 16 17 18 18 18 18 18 18 18 17 17 15 15 15 15 15 15 14 13 14 14 13 14 14 13 11 10 10
9 12 15 13 9 8 10 12 13 17 18 16 17 18 13 13 14 14 15 18 18 18 19 20 19 18 18 16 15 15 15 16 16 15 15 14 15 14 15 15 14 13 12 12
10 13 17 14 12 10 12 12 12 12 14 18 19 19 12 13 14 14 17 19 18 20 18 20 19 18 18 17 16 15 15 15 16 16 17 16 16 16 16 16 15 15 15 13
7 12 14 17 15 13 14 12 11 12 16 18 16 15 13 14 15 15 16 17 18 19 20 21 20 19 18 17 16 15 15 15 16 16 17 17 17 17 17 17 17 16 15 15
9 14 13 12 12 12 12 13 12 13 13 16 15 15 12 13 14 15 15 15 15 15 15 17 19 20 19 17 17 15 15 15 15 16 17 18 17 17 17 17 18 17 17 17
10 16 15 16 12 12 13 13 13 12 12 13 14 14 11 13 14 15 14 14 14 15 15 15 15 16 17 16 16 15 15 15 15 16 17 17 17 18 18 18 18 18 18 18
11 13 15 16 13 13 16 16 13 12 11 12 15 13 13 14 14 14 14 14 14 15 15 16 17 16 16 17 16 17 16 15 15 16 16 17 17 18 18 18 19 19 19 19
11 12 12 16 14 20 15 10 10 11 10 11 13 14 13 13 14 14 14 14 14 15 16 16 18 17 17 17 16 16 16 16 15 16 16 16 16 17 17 18 17 17 17 18
9 12 14 17 16 14 12 11 12 12 13 11 12 14 14 15 14 16 13 14 15 15 16 17 16 17 17 17 16 17 17 16 16 16 16 16 16 16 17 17 17 17 18 18
10 10 13 15 18 20 13 11 10 10 15 12 13 15 14 14 16 17 14 14 15 16 16 17 17 17 17 17 16 17 18 17 17 16 15 15 15 16 17 17 17 17 17 17
13 13 15 15 16 14 11 10 10 16 15 12 12 13 14 15 15 15 14 15 15 16 17 16 17 17 18 17 16 17 17 17 15 14 14 14 14 15 16 17 16 17 18 18
13 15 15 14 16 18 10 11 13 11 12 12 12 12 13 14 14 14 15 16 15 16 17 17 17 18 17 17 16 17 17 16 15 14 14 15 15 14 15 16 16 17 18 19
14 11 13 12 14 10 9 10 10 10 11 12 12 12 13 14 14 14 15 15 15 16 16 16 17 17 17 16 16 17 16 15 15 14 15 15 15 15 15 15 16 16 17 18
11 8 11 12 11 11 9 10 10 10 12 12 12 12 13 14 13 14 14 14 15 16 16 17 17 18 17 16 16 16 15 15 15 15 15 15 16 16 16 16 16 16 17 18
10 9 11 12 11 11 10 9 11 12 12 12 12 11 12 13 14 14 14 14 15 15 16 17 17 18 18 17 17 16 16 15 15 15 15 15 16 17 17 17 17 17 16 16
9 10 12 13 10 11 12 10 11 12 13 12 11 11 11 13 14 13 13 13 15 16 16 17 17 18 18 17 17 17 16 15 16 16 16 16 16 17 17 18 19 16 16 15

GFSCGP_con_lsi_141.txt.gz
Lid_Strength_Index
11 12 13 12 12 12 13 15 15 13 11 13 12 13 13 12 12 13 13 13 13 12 11 11 11 11 11 11 11 11 11 10 10 10 11 11 11 10 9 8 7 7 7 7
13 14 12 12 12 13 14 14 14 13 11 12 13 13 13 12 13 13 13 13 12 12 12 11 11 11 12 12 11 11 11 10 10 11 11 11 11 10 9 8 8 7 8 7
13 12 11 12 13 14 14 14 14 14 12 11 12 13 13 12 12 12 12 12 12 13 13 12 12 12 12 12 11 10 10 10 10 10 10 11 10 10 10 10 9 8 7 7
13 11 12 12 13 13 15 11 12 13 14 15 12 17 13 13 13 13 13 13 13 13 12 13 13 13 12 11 10 10 10 10 10 11 11 12 12 13 12 11 10 9 8 7
13 12 13 13 13 11 13 11 12 12 13 14 13 15 14 13 13 12 12 13 12 13 13 13 13 12 12 11 10 10 10 10 11 11 11 12 12 12 11 11 10 10 8 7
12 11 11 11 10 10 10 11 11 12 13 16 13 13 14 12 11 11 12 13 13 13 13 13 12 12 12 11 11 10 10 11 11 12 11 11 12 12 12 12 11 10 9 8
13 12 10 9 11 10 10 12 15 16 16 16 13 14 12 11 11 11 12 13 13 13 13 13 13 13 12 12 11 11 11 12 11 12 11 11 12 12 13 12 12 12 11 9
15 15 11 9 10 11 11 11 14 20 18 16 11 15 12 11 11 11 12 13 13 14 13 13 14 13 12 12 12 11 12 12 12 12 12 12 12 12 13 13 13 12 12 11
14 14 9 8 8 8 10 12 9 13 13 17 14 12 11 12 12 12 13 13 14 14 14 14 13 13 13 13 13 12 12 12 12 12 12 12 12 13 13 14 13 13 12 11
11 14 10 8 7 7 9 8 13 13 20 20 16 16 15 14 12 12 14 14 15 15 14 13 13 13 13 13 13 12 12 13 13 13 13 13 13 13 14 14 13 13 12 11
9 11 12 9 10 11 10 11 12 12 14 18 19 16 11 12 12 13 13 14 15 15 15 14 14 13 13 13 13 13 14 14 14 14 14 13 14 14 14 15 14 14 12 12
8 11 14 12 8 8 9 11 11 15 17 15 16 16 10 10 11 11 13 14 15 15 16 15 14 14 14 14 13 14 14 15 14 14 15 14 15 15 15 16 15 14 13 12
8 11 15 14 11 9 11 11 11 12 13 16 17 16 10 11 12 11 13 15 15 15 15 15 15 15 15 14 14 14 14 14 14 14 15 15 16 16 17 16 16 15 14 13
6 11 12 15 13 11 13 11 10 11 16 15 15 14 10 10 11 12 13 14 15 15 15 14 15 15 14 14 14 13 14 14 14 14 15 16 16 16 17 17 17 16 15 15
8 13 12 11 11 11 11 12 11 12 12 15 13 13 10 9 9 11 12 14 14 14 13 14 15 14 14 14 13 13 13 14 14 14 14 15 15 16 17 17 16 16 16 16
9 13 12 13 11 11 12 12 11 11 11 11 11 12 8 9 11 12 13 13 14 14 14 14 14 14 14 13 13 13 13 14 14 14 15 14 15 15 15 17 17 16 16 17
10 11 13 15 11 12 14 12 12 11 10 10 13 10 10 11 12 12 13 12 13 13 14 15 15 14 14 14 13 13 13 13 14 14 15 15 15 15 15 15 16 16 18 17
10 11 12 14 13 18 11 9 9 10 9 9 9 9 10 11 12 12 11 12 12 13 14 15 15 15 14 13 13 13 13 13 14 15 14 15 15 16 16 15 15 15 15 16
8 10 14 16 15 13 11 9 10 11 11 8 9 11 13 13 12 13 11 11 12 13 14 14 14 15 15 14 13 13 14 13 14 15 15 14 15 15 15 16 16 15 15 15
9 8 12 14 17 18 11 8 7 8 13 9 9 11 12 12 12 11 11 12 13 13 14 15 15 15 14 14 13 13 14 14 15 15 14 14 14 15 15 15 15 15 15 15
12 12 14 14 16 13 8 7 8 14 12 9 10 10 11 11 10 11 11 13 13 14 15 15 15 15 15 14 13 14 14 15 14 13 14 14 13 14 14 14 14 15 15 15
12 13 14 13 15 17 7 9 12 9 9 10 10 10 11 11 12 12 13 14 15 15 16 16 16 15 14 13 13 14 14 13 13 13 14 15 14 13 13 13 14 14 15 16
13 10 12 11 11 7 7 8 7 8 9 9 9 10 10 12 12 14 15 14 14 15 16 15 15 14 14 14 14 15 14 13 13 14 15 15 15 14 13 14 14 15 15 16
9 7 10 10 9 8 8 7 8 8 9 9 10 10 11 12 13 14 14 14 15 15 16 15 15 15 15 14 14 14 14 13 14 15 15 15 15 14 14 14 14 15 15 16
8 8 10 10 8 8 8 8 8 10 10 11 10 10 11 11 12 12 13 13 14 15 15 15 15 15 15 15 15 14 14 14 15 15 15 15 15 15 15 15 15 15 15 15
7 9 11 11 7 7 8 8 9 10 11 11 11 12 11 11 12 12 13 13 14 15 15 16 16 16 16 15 15 15 14 14 15 15 15 15 15 15 16 16 16 15 15 15

GFSCGP_con_lsi_144.txt.gz
Lid_Strength_Index
8 9 10 10 10 10 11 11 11 9 8 10 10 10 10 9 9 9 9 9 8 9 8 8 7 7 7 7 7 7 7 6 7 7 8 8 8 8 7 7 6 6 5 5
9 10 9 10 10 11 11 12 11 10 10 11 10 10 9 8 8 8 8 9 8 8 8 8 8 7 7 7 7 6 7 7 7 7 8 8 8 8 8 7 7 7 7 6
10 9 9 10 10 11 10 11 11 11 10 9 10 10 10 9 8 9 9 9 9 9 9 8 8 7 7 7 7 7 7 7 7 7 7 7 7 8 8 9 9 8 8 7
10 9 10 10 11 11 12 10 11 11 12 13 10 14 10 9 9 9 9 8 8 8 8 8 8 8 8 8 7 7 7 7 7 6 7 8 9 11 10 10 9 9 8 8
11 11 11 11 11 10 11 9 10 10 11 11 11 13 10 9 9 9 8 8 8 8 9 9 9 9 8 8 8 8 7 6 6 7 7 9 10 10 11 10 10 10 9 8
10 9 10 10 9 9 9 10 10 10 10 14 11 12 10 9 9 7 7 8 9 9 9 9 8 9 9 8 8 7 7 7 6 7 7 9 11 11 12 12 11 11 10 9
11 11 9 9 10 8 9 10 13 14 15 14 11 12 10 8 8 7 8 8 9 9 9 9 9 9 9 9 9 8 8 8 7 7 8 10 11 12 12 12 12 12 11 11
13 14 10 8 9 10 10 10 12 17 16 14 10 13 10 8 8 8 8 10 10 10 10 10 11 10 10 10 10 9 9 8 8 8 9 10 11 12 12 12 12 12 12 12
13 13 9 8 7 7 9 10 8 12 11 14 12 10 9 9 9 9 9 9 10 10 11 12 12 10 10 11 11 10 10 9 9 9 9 10 11 12 12 12 12 12 12 12
10 13 9 8 6 6 8 7 11 11 18 17 13 12 13 13 10 9 11 10 11 11 11 12 12 11 10 11 11 11 10 11 11 10 11 11 11 11 12 13 13 13 12 12
8 10 11 8 9 9 9 10 9 10 11 16 17 14 9 11 10 10 11 11 12 12 13 12 12 12 11 11 11 12 12 12 12 12 11 11 12 12 12 13 13 13 13 12
7 9 11 10 7 6 7 9 9 14 14 13 16 16 7 8 7 7 8 12 12 12 13 13 13 12 12 12 11 12 12 12 12 12 12 12 12 13 13 14 13 13 14 13
7 10 13 12 9 8 10 9 9 10 11 14 17 16 7 7 7 6 8 11 12 13 13 13 13 12 12 12 12 11 11 12 12 12 12 13 13 14 14 14 14 14 14 14
6 9 11 13 11 9 11 9 9 9 15 14 13 13 9 7 7 7 6 9 12 13 13 13 13 12 12 12 11 11 10 10 10 11 12 13 13 13 14 14 14 14 14 14
7 11 10 9 9 9 9 10 9 10 10 13 13 11 8 7 6 6 5 9 12 13 13 13 13 12 12 12 11 11 10 10 10 11 11 12 11 12 13 14 14 14 14 14
7 11 11 13 9 9 11 11 10 10 10 10 10 10 6 5 6 7 8 10 12 12 12 12 12 12 12 12 11 11 11 11 10 11 11 12 12 12 12 13 12 15 15 15
8 9 11 13 10 10 13 12 11 9 8 9 11 8 6 7 7 7 9 10 10 11 11 12 12 12 12 11 11 11 11 10 11 11 11 12 12 12 12 12 12 12 13 15
9 9 10 12 11 17 10 7 7 8 8 7 7 7 6 6 7 7 7 8 10 10 11 12 12 12 11 11 11 11 11 11 11 11 12 12 12 12 12 12 13 12 12 13
6 8 12 14 13 11 9 8 8 9 9 6 8 7 7 8 8 10 8 8 9 10 10 11 11 12 12 12 12 11 11 11 11 12 12 12 13 12 12 13 12 13 12 12
7 7 11 12 16 16 10 7 6 6 12 7 7 7 8 8 10 8 9 9 9 10 10 11 11 11 11 12 11 12 12 12 12 12 12 12 12 13 13 12 12 12 12 12
11 11 14 13 14 11 7 6 6 14 12 6 6 6 7 8 8 7 8 9 9 10 11 11 12 12 11 11 11 11 11 12 12 11 12 12 12 12 11 11 11 12 12 12
11 12 13 12 14 16 6 7 10 8 6 6 6 6 7 7 8 8 9 10 11 12 12 12 12 12 11 11 11 11 12 11 11 12 12 13 12 12 12 11 11 11 12 13
11 9 10 10 10 6 5 5 4 5 6 5 6 6 7 8 9 9 11 12 12 12 12 12 12 12 11 11 11 12 12 11 12 12 13 13 13 13 12 12 12 12 12 13
7 6 9 9 7 6 5 4 4 5 6 6 6 6 7 9 10 11 12 11 11 12 13 12 12 12 12 12 12 12 12 12 12 13 13 13 14 14 13 13 13 13 13 13
7 7 8 9 7 6 5 5 4 5 6 7 7 7 8 9 10 10 10 11 11 12 12 12 12 12 12 12 12 12 12 12 13 13 13 13 13 14 13 14 14 14 13 14
6 7 10 10 6 6 6 4 4 6 7 7 8 9 8 8 9 9 10 10 11 12 12 13 12 12 12 13 13 13 13 12 13 13 13 13 13 13 13 13 13 14 15 15